Grafton, IL

2:09 AM CST on February 21, 2017 (GMT -0600)
Saint Charles County Smartt

Weather History for KSET - March, 2013

Change the Weather History Date:

Thursday, March 28, 2013

  Actual Average (KSTL) Record (KSTL)
Temperature  
Mean Temperature 43 °F -  
Max Temperature 53 °F 63 °F 89 °F (1985)
Min Temperature 33 °F 42 °F 21 °F (1934)
Degree Days  
Heating Degree Days 22    
Moisture  
Dew Point 33 °F    
Average Humidity 71    
Maximum Humidity 82    
Minimum Humidity 59    
Precipitation  
Precipitation 0.00 in - - ()
Sea Level Pressure  
Sea Level Pressure 30.31 in    
Wind  
Wind Speed 8 mph (East)    
Max Wind Speed 14 mph    
Max Gust Speed -    
Visibility 10 miles    
Events      
Averages and records for this station are not official NWS values.
T = Trace of Precipitation, MM = Missing Value Source: NWS Daily Summary

Daily Weather History Graph

Daily Weather History Graph

Search for Another Location

Airport or City:

Trip Planner

Search our weather history database for the weather conditions in past years. The results will help you decide how hot, cold, wet, or windy it might be!

Date:

Astronomy

Mar. 28, 2013 Rise Set
Actual Time 6:52 AM CDT 7:21 PM CDT
Civil Twilight 6:25 AM CDT 7:48 PM CDT
Nautical Twilight 5:53 AM CDT 8:20 PM CDT
Astronomical Twilight 5:21 AM CDT 8:52 PM CDT
Moon 9:12 PM CDT (3/28) 7:21 AM CDT (3/28)
Length of Visible Light 13h 23m
Length of Day
12h 29m
Full, 98% of the Moon is Illuminated
Mar 28
Full
Apr 2
Last Quarter
Apr 10
New
Apr 18
First Quarter
Apr 25
Full

Hourly Weather History & Observations

Time (CDT) Temp. Windchill Dew Point Humidity Pressure Visibility Wind Dir Wind Speed Gust Speed Precip Events Conditions
12:54 AM 35.1 °F 30.1 °F 28.0 °F 76% 30.35 in 10.0 mi East 5.8 mph - N/A   Overcast
1:54 AM 35.1 °F 29.3 °F 27.0 °F 72% 30.34 in 10.0 mi ESE 6.9 mph - N/A   Overcast
2:54 AM 34.0 °F 31.0 °F 27.0 °F 75% 30.34 in 10.0 mi ENE 3.5 mph - N/A   Overcast
3:54 AM 34.0 °F 28.8 °F 26.1 °F 73% 30.34 in 10.0 mi East 5.8 mph - N/A   Overcast
4:54 AM 34.0 °F 28.8 °F 27.0 °F 75% 30.34 in 10.0 mi East 5.8 mph - N/A   Overcast
5:54 AM 34.0 °F 27.2 °F 26.1 °F 73% 30.35 in 10.0 mi ESE 8.1 mph - N/A   Overcast
6:54 AM 33.1 °F 26.9 °F 26.1 °F 75% 30.36 in 10.0 mi ESE 6.9 mph - N/A   Overcast
7:54 AM 34.0 °F 28.8 °F 27.0 °F 75% 30.37 in 10.0 mi ESE 5.8 mph - N/A   Overcast
8:54 AM 36.0 °F 28.5 °F 27.0 °F 70% 30.37 in 10.0 mi ESE 10.4 mph - N/A   Clear
9:54 AM 37.0 °F 30.4 °F 28.0 °F 70% 30.38 in 10.0 mi East 9.2 mph - N/A   Scattered Clouds
10:54 AM 39.9 °F 33.4 °F 30.0 °F 68% 30.38 in 10.0 mi East 10.4 mph - N/A   Clear
11:54 AM 43.0 °F 37.2 °F 32.0 °F 65% 30.36 in 10.0 mi East 10.4 mph - N/A   Mostly Cloudy
12:54 PM 46.0 °F 41.0 °F 33.1 °F 61% 30.35 in 10.0 mi East 10.4 mph - N/A   Scattered Clouds
1:54 PM 48.0 °F - 35.1 °F 61% 30.32 in 10.0 mi East 12.7 mph - N/A   Mostly Cloudy
2:54 PM 50.0 °F - 36.0 °F 59% 30.29 in 10.0 mi East 11.5 mph - N/A   Mostly Cloudy
3:54 PM 53.1 °F - 39.0 °F 59% 30.27 in 10.0 mi East 13.8 mph - N/A   Overcast
4:54 PM 52.0 °F - 39.0 °F 61% 30.25 in 10.0 mi East 12.7 mph - N/A   Mostly Cloudy
5:54 PM 52.0 °F - 39.9 °F 63% 30.25 in 10.0 mi East 12.7 mph - N/A   Overcast
6:54 PM 50.0 °F - 42.1 °F 74% 30.25 in 10.0 mi East 9.2 mph - N/A   Overcast
7:54 PM 48.0 °F - 39.9 °F 74% 30.25 in 10.0 mi East 10.4 mph - N/A   Overcast
8:54 PM 46.9 °F - 39.0 °F 74% 30.26 in 10.0 mi East 9.2 mph - N/A   Overcast
9:54 PM 44.1 °F 40.8 °F 39.0 °F 82% 30.26 in 10.0 mi East 5.8 mph - N/A   Overcast
10:54 PM 45.0 °F 40.6 °F 39.0 °F 80% 30.26 in 10.0 mi East 8.1 mph - N/A   Overcast
11:54 PM 44.1 °F 40.8 °F 39.0 °F 82% 30.25 in 10.0 mi East 5.8 mph - N/A   Overcast